ENHD

Details ICAO ENHD (HAU)
Name Haugesund Lufthavn Karmoy
Region Norway
Timezone Europe/Oslo (UTC+2.0)
Plans Departing 51
Arriving 63
Stats Elevation 76 ft / 23 m (AMSL)
Location 59.344015° 5.210871°
Runways 1
Magnetic Variation 0.966° E
Sunrise 2018-05-26 02:45:40 UTC / 2018-05-26 04:45:40 Local
Sunset 2018-05-26 20:29:36 UTC / 2018-05-26 22:29:36 Local
Advertisement - Login to hide

Runways

ID Width Length Bearing (true) Bearing (mag) Surface Threshold Offset Overrun Length
14 148 ft / 45 m 6,940 ft / 2,115 m 134.35° 133.38° Asphalt 197 ft / 60 m 0 ft / 0 m
32 148 ft / 45 m 6,940 ft / 2,115 m 314.38° 313.41° Asphalt 197 ft / 60 m 0 ft / 0 m

Approach Navaids

Runway Type Ident Frequency Range Bearing (true) Bearing (mag) Slope Elevation
14 Localiser HD 109.10 MHz 18 nm / 33 km 134.37° 133.41° - 96 ft / 29 m (AMSL)
14 Glidescope HD 109.10 MHz 10 nm / 19 km 134.36° 133.40° 3.00° 76 ft / 23 m (AMSL)

Map

Weather


0- 5 10 15 20 25 30 35+ Temperature / ° C

Clouds and Precipitation
Forecast for 2018-05-26 06:00 UTC. Updated an hour ago

Ground ~20,000 ft ~40,000 ft Winds

METAR

ENHD 260520Z 35014KT CAVOK 12/10 Q1029

TAF

Not found

Frequencies

Recorded 118.17 MHz ATIS
Tower 121.10 MHz TWR
Tower 120.50 MHz TWR
Warning: Do not use this data for real-world aviation or navigation. No guarantee of current accuracy is given.